Find Starlink 1699

NORAD ID: 46548 Int'l Des: 2020-070 Owner: SPXS Country: US Constellation: starlink decayed
LEOCIRCULAR

Re-entered — 19. Okt. 2024

3D-Globus wird geladen...

About Starlink 1699

Starlink 1699 (NORAD 46548) is a starlink constellation satellite (v1.0) launched Oct 6, 2020 by SPXS of US. It re-entered the atmosphere on Oct 19, 2024. with a mass of 260.00 kg.

Höhenverlauf

Loading altitude history...

Zweizeiliger Elementsatz

1 46548U 20070S 24293.26022975 .09029687 12197-4 10613-2 0 9997
2 46548 53.0272 211.2498 0003257 198.9802 297.3294 16.35874087224293
Epoch: 19. Okt. 2024 • Age: 15488 hours

Aktueller Status

Position data unavailable
Startdatum 6. Okt. 2020
Alter 5.8 years
Verglühungsdatum 19. Okt. 2024
Typ internet

Technische Details

Klassifizierung Payload
Masse 260.00 kg
Trockenmasse 248.00 kg
Gesamtmasse 260.00 kg
Länge 0.20 m
Durchmesser 2.80 m
Spannweite 9.00 m
Form Box + pan
Hersteller SPXS
Bus-Typ Starlink
Phasenstatus Unknown Transfer Status
Besitzer/Staat SPXS/US

Most Searched